Location: Wolf Lake
(46.8518°N, 80.6381°W)
Time: 10:53:20
(UTC-05:00)

ISS - Visible Passes

Search period start: 19 February 2018 00:00
Search period end: 01 March 2018 00:00
Orbit: 403 x 407 km, 51.6° (Epoch: 20 February)

Date Brightness Start Highest point End Pass type
(mag) Time Alt. Az. Time Alt. Az. Time Alt. Az.
26 Feb -1.6 06:34:35 10° SSW 06:37:23 26° SE 06:40:11 10° E visible
27 Feb -1.0 05:43:15 10° S 05:45:18 16° SE 05:47:20 10° E visible
28 Feb -3.1 06:25:54 10° SW 06:29:06 53° SSE 06:32:19 10° ENE visible
